LOT3923 EPWA-EPKK

Flight info

Callsign LOT3923
Flight time 0h 31m
Altitude 22000
Route EVINA DCT KUKAM
Aircraft B38M/M-SDE1FGHILORVWXY/HB1

Departure

Time 2026-05-01 14:21
Airport Warsaw Chopin Airport (EPWA)

Arrival

Time 2026-05-01 14:52
Airport Kraków John Paul II International Airport (EPKK)
Time Latitude Longitude Altitude Speed Heading
2026-05-01 14:05 52.15759 20.98007 339 ft 0 kts 114°
2026-05-01 14:18 52.15759 20.98009 341 ft 1 kts 114°
2026-05-01 14:18 52.15750 20.98040 338 ft 8 kts 114°
2026-05-01 14:19 52.15766 20.98124 340 ft 6 kts 31°
2026-05-01 14:19 52.15824 20.98168 340 ft 12 kts 23°
2026-05-01 14:19 52.15913 20.98234 339 ft 14 kts 25°
2026-05-01 14:19 52.16007 20.98304 341 ft 14 kts 24°
2026-05-01 14:20 52.16085 20.98354 337 ft 11 kts
2026-05-01 14:20 52.16180 20.98117 341 ft 30 kts 294°
2026-05-01 14:20 52.16354 20.97501 339 ft 88 kts 295°
2026-05-01 14:21 52.16673 20.96358 344 ft 132 kts 294°
2026-05-01 14:21 52.17087 20.94879 570 ft 147 kts 297°
2026-05-01 14:21 52.17552 20.93377 1008 ft 153 kts 298°
2026-05-01 14:22 52.18323 20.89894 1848 ft 173 kts 282°
2026-05-01 14:22 52.18297 20.87836 2333 ft 197 kts 261°
2026-05-01 14:22 52.17924 20.85548 2880 ft 217 kts 258°
2026-05-01 14:22 52.17537 20.83099 3480 ft 233 kts 259°
2026-05-01 14:23 52.17128 20.80429 4092 ft 252 kts 258°
2026-05-01 14:23 52.16690 20.77562 4741 ft 268 kts 259°
2026-05-01 14:23 52.16240 20.74604 5700 ft 270 kts 259°
2026-05-01 14:23 52.15613 20.71672 6463 ft 284 kts 240°
2026-05-01 14:24 52.14259 20.69300 7286 ft 290 kts 219°
2026-05-01 14:24 52.12654 20.67243 7995 ft 299 kts 219°
2026-05-01 14:24 52.11005 20.65124 8798 ft 304 kts 219°
2026-05-01 14:24 52.09324 20.62983 9571 ft 311 kts 219°
2026-05-01 14:25 52.07602 20.60799 10344 ft 316 kts 219°
2026-05-01 14:25 52.05828 20.58557 10852 ft 332 kts 219°
2026-05-01 14:25 52.03960 20.56199 11310 ft 348 kts 219°
2026-05-01 14:25 52.02017 20.53750 11924 ft 357 kts 219°
2026-05-01 14:26 52.00049 20.51276 12774 ft 360 kts 219°
2026-05-01 14:26 51.96029 20.46264 14276 ft 373 kts 214°
2026-05-01 14:26 51.93660 20.44561 15004 ft 375 kts 191°
2026-05-01 14:27 51.91079 20.43991 15718 ft 378 kts 183°
2026-05-01 14:27 51.88444 20.43547 16450 ft 383 kts 182°
2026-05-01 14:27 51.85778 20.43120 17190 ft 387 kts 182°
2026-05-01 14:28 51.80358 20.42282 18618 ft 396 kts 182°
2026-05-01 14:28 51.77603 20.41862 19226 ft 400 kts 182°
2026-05-01 14:28 51.74818 20.41438 19856 ft 403 kts 182°
2026-05-01 14:28 51.72004 20.41011 20189 ft 408 kts 182°
2026-05-01 14:29 51.69185 20.40583 20293 ft 407 kts 182°
2026-05-01 14:29 51.66364 20.40155 20303 ft 407 kts 182°
2026-05-01 14:30 51.57922 20.38879 20299 ft 406 kts 182°
2026-05-01 14:30 51.55103 20.38453 20303 ft 406 kts 182°
2026-05-01 14:30 51.52292 20.38029 20299 ft 406 kts 182°
2026-05-01 14:31 51.46672 20.37184 20296 ft 406 kts 182°
2026-05-01 14:31 51.43852 20.36760 20299 ft 406 kts 181°
2026-05-01 14:31 51.41048 20.36340 20297 ft 406 kts 181°
2026-05-01 14:31 51.38244 20.35704 20283 ft 409 kts 193°
2026-05-01 14:32 51.35525 20.34295 20409 ft 413 kts 196°
2026-05-01 14:32 51.32802 20.32884 21039 ft 414 kts 195°
2026-05-01 14:32 51.29994 20.31423 21004 ft 426 kts 195°
2026-05-01 14:32 51.27231 20.29991 21009 ft 412 kts 195°
2026-05-01 14:33 51.24574 20.28613 20950 ft 399 kts 195°
2026-05-01 14:33 51.21940 20.27249 20896 ft 387 kts 195°
2026-05-01 14:33 51.19416 20.25944 20721 ft 379 kts 195°
2026-05-01 14:33 51.16908 20.24648 20329 ft 378 kts 195°
2026-05-01 14:34 51.14404 20.23355 19923 ft 378 kts 195°
2026-05-01 14:34 51.11899 20.22063 19526 ft 378 kts 195°
2026-05-01 14:34 51.09427 20.20790 19139 ft 378 kts 195°
2026-05-01 14:34 51.06889 20.19485 18736 ft 379 kts 195°
2026-05-01 14:35 51.04378 20.18195 18300 ft 379 kts 195°
2026-05-01 14:35 51.01876 20.16911 17877 ft 378 kts 195°
2026-05-01 14:35 50.99379 20.15631 17464 ft 376 kts 195°
2026-05-01 14:35 50.96891 20.14356 17079 ft 375 kts 195°
2026-05-01 14:36 50.94413 20.13089 16684 ft 374 kts 195°
2026-05-01 14:36 50.91973 20.11843 16296 ft 372 kts 195°
2026-05-01 14:36 50.89481 20.10571 15901 ft 371 kts 195°
2026-05-01 14:36 50.87055 20.09334 15516 ft 371 kts 195°
2026-05-01 14:37 50.84609 20.08088 15125 ft 370 kts 195°
2026-05-01 14:37 50.82164 20.06843 14741 ft 369 kts 195°
2026-05-01 14:37 50.79679 20.05964 14305 ft 364 kts 179°
2026-05-01 14:37 50.77159 20.06042 13738 ft 365 kts 173°
2026-05-01 14:38 50.74579 20.06198 12996 ft 374 kts 174°
2026-05-01 14:38 50.71970 20.06334 12457 ft 376 kts 175°
2026-05-01 14:38 50.69368 20.06460 12115 ft 372 kts 175°
2026-05-01 14:38 50.66800 20.06581 11597 ft 366 kts 175°
2026-05-01 14:39 50.64297 20.06699 11171 ft 354 kts 175°
2026-05-01 14:39 50.61880 20.06812 10835 ft 340 kts 175°
2026-05-01 14:39 50.59562 20.06920 10531 ft 328 kts 175°
2026-05-01 14:39 50.57284 20.07026 10223 ft 326 kts 176°
2026-05-01 14:40 50.55037 20.07132 10007 ft 320 kts 176°
2026-05-01 14:40 50.52819 20.07235 9682 ft 317 kts 176°
2026-05-01 14:40 50.50620 20.07337 9357 ft 316 kts 176°
2026-05-01 14:40 50.48428 20.07439 9030 ft 314 kts 176°
2026-05-01 14:41 50.46254 20.07541 8716 ft 312 kts 176°
2026-05-01 14:41 50.44095 20.07640 8394 ft 306 kts 176°
2026-05-01 14:41 50.42005 20.07736 8087 ft 296 kts 176°
2026-05-01 14:41 50.39982 20.07835 7778 ft 286 kts 174°
2026-05-01 14:42 50.38108 20.08609 7500 ft 276 kts 149°
2026-05-01 14:42 50.36518 20.10233 7242 ft 272 kts 142°
2026-05-01 14:42 50.34990 20.11977 6984 ft 271 kts 141°
2026-05-01 14:42 50.33480 20.13729 6744 ft 269 kts 141°
2026-05-01 14:43 50.31992 20.15470 6501 ft 266 kts 141°
2026-05-01 14:43 50.30539 20.17173 6307 ft 262 kts 141°
2026-05-01 14:43 50.29081 20.18886 6110 ft 258 kts 141°
2026-05-01 14:43 50.27656 20.20560 5942 ft 253 kts 141°
2026-05-01 14:44 50.26264 20.22189 5801 ft 246 kts 141°
2026-05-01 14:44 50.23607 20.25291 5615 ft 230 kts 144°
2026-05-01 14:44 50.22139 20.26116 5435 ft 225 kts 182°
2026-05-01 14:45 50.20751 20.25328 5214 ft 213 kts 226°
2026-05-01 14:45 50.19139 20.21692 5169 ft 206 kts 232°
2026-05-01 14:45 50.18230 20.20026 5243 ft 203 kts 232°
2026-05-01 14:46 50.17309 20.18375 5214 ft 201 kts 231°
2026-05-01 14:46 50.15453 20.15110 5031 ft 200 kts 231°
2026-05-01 14:46 50.14521 20.13486 4927 ft 201 kts 231°
2026-05-01 14:47 50.13587 20.11871 4793 ft 200 kts 231°
2026-05-01 14:47 50.12652 20.10258 4651 ft 200 kts 231°
2026-05-01 14:47 50.11965 20.08427 4397 ft 196 kts 258°
2026-05-01 14:48 50.11369 20.04328 3903 ft 194 kts 261°
2026-05-01 14:48 50.11079 20.02276 3672 ft 194 kts 261°
2026-05-01 14:48 50.10520 19.98256 3196 ft 187 kts 261°
2026-05-01 14:49 50.09979 19.94358 2669 ft 181 kts 260°
2026-05-01 14:49 50.09461 19.90664 2263 ft 163 kts 261°
2026-05-01 14:50 50.09151 19.88418 1911 ft 156 kts 261°
2026-05-01 14:50 50.08927 19.86782 1710 ft 155 kts 261°
2026-05-01 14:51 50.08762 19.85494 1519 ft 154 kts 263°
2026-05-01 14:51 50.08287 19.82222 1102 ft 156 kts 259°
2026-05-01 14:52 50.07842 19.78971 805 ft 139 kts 259°
2026-05-01 14:52 50.07742 19.78247 802 ft 77 kts 258°
2026-05-01 14:52 50.07575 19.77066 805 ft 34 kts 256°
2026-05-01 14:53 50.07513 19.76846 805 ft 15 kts 197°
2026-05-01 14:53 50.07439 19.76858 803 ft 1 kts 167°
2026-05-01 14:53 50.07421 19.76865 802 ft 5 kts 167°
2026-05-01 14:53 50.07379 19.76879 802 ft 8 kts 168°
2026-05-01 14:54 50.07318 19.76913 802 ft 11 kts 132°
2026-05-01 14:54 50.07319 19.77044 802 ft 15 kts 77°
2026-05-01 14:54 50.07341 19.77199 802 ft 17 kts 78°
2026-05-01 14:54 50.07369 19.77402 802 ft 21 kts 77°
2026-05-01 14:55 50.07395 19.77588 802 ft 18 kts 77°
2026-05-01 14:55 50.07419 19.77762 802 ft 18 kts 77°
2026-05-01 14:55 50.07444 19.77943 802 ft 18 kts 77°
2026-05-01 14:55 50.07472 19.78140 802 ft 19 kts 77°
2026-05-01 14:56 50.07496 19.78314 802 ft 18 kts 77°
2026-05-01 14:56 50.07520 19.78487 802 ft 16 kts 78°
2026-05-01 14:56 50.07547 19.78675 802 ft 20 kts 77°
2026-05-01 14:56 50.07571 19.78848 802 ft 15 kts 78°
2026-05-01 14:57 50.07596 19.79031 802 ft 19 kts 77°
2026-05-01 14:57 50.07646 19.79391 802 ft 13 kts 78°
2026-05-01 14:57 50.07668 19.79554 802 ft 14 kts 78°
2026-05-01 14:58 50.07647 19.79697 802 ft 15 kts 154°
2026-05-01 14:58 50.07547 19.79734 802 ft 16 kts 168°
2026-05-01 14:58 50.07451 19.79765 802 ft 14 kts 168°
2026-05-01 14:58 50.07376 19.79820 802 ft 9 kts 109°
2026-05-01 14:59 50.07384 19.79927 802 ft 10 kts 78°
2026-05-01 14:59 50.07381 19.79970 802 ft 4 kts 132°
2026-05-01 14:59 50.07333 19.79998 802 ft 8 kts 167°
2026-05-01 14:59 50.07317 19.80003 802 ft 4 kts 168°
2026-05-01 15:00 50.07310 19.80006 802 ft 0 kts 168°